Location: Mexico
(19.4000°N, 99.1500°W)
Time: 08:05:49
(UTC-06:00)

ISS - Pass Details

Date: 16 September 2019
Orbit: 411 x 421 km, 51.6° (Epoch: 18 September)

Event Time Altitude Azimuth Distance (km) Brightness Sun altitude
Rises 19:26:29 0° 213° (SSW) 2,330 0.4 -12.1°
Reaches altitude 10° 19:28:34 10° 210° (SSW) 1,469 -0.7 -12.6°
Maximum altitude 19:31:50 66° 128° (SE) 449 -3.9 -13.4°
Enters shadow 19:34:23 16° 47° (NE) 1,180 -1.8 -14.0°
